{"data":{"norad_id":57704,"intl_designator":"2023-129G","name":"STARLINK-30346","alt_names":[],"object_type":"PAYLOAD","status":"ACTIVE","operator":null,"country":"US","launch_date":"2023-08-27","launch_site_code":"AFETR","launch_vehicle":null,"mission":null,"orbit_class":"UNKNOWN","rcs_meters":null,"size_class":null,"mass_kg":null,"dimensions":null,"purposes":["comms"],"wikipedia_slug":null,"has_3d_model":false,"image_url":null,"decayed_at":null,"tle_current":{"epoch":"2026-09-20T22:07:48.372096Z","epoch_age_seconds":95216,"freshness":"FRESH","line1":"1 57704U 23129G   26263.92208764  .00000252  00000+0  18684-4 0  9996","line2":"2 57704  43.0028  95.1002 0000974 255.8621 104.2122 15.27575104170409","mean_motion":15.27575104,"eccentricity":9.74e-5,"inclination_deg":43.0028,"raan_deg":95.1002,"arg_perigee_deg":255.8621,"mean_anomaly_deg":104.2122,"bstar":1.8684e-5,"rev_number":17040,"period_min":94.267050846097,"perigee_km":482.39547551046,"apogee_km":483.73203741782,"semimajor_km":6861.2007564641,"source":"CELESTRAK","updated_at":"2026-09-21T09:00:33.674998Z"}}}